TORP current weather conditions

sailwx.info

Air temperature 5.0° C
Visibility: greater than 5.4 NM
Dewpoint 4.0° C
Present weather: Light rain.

Last reported at 2019-Dec-06 16:50 UTC.
Time now 2019-Dec-06 17:44 UTC

Location: N 59°12' E 010°16'.
View on Google Maps.

See reports from other nearby stations

  
Tides and Currents Weather Stations Pressure Air Temp Water Temp Dewpoint Dewpoint Depression Visibility Wind Speed Wind Dir Waves Ship Positions
date/time (UTC)wind fromknots sea level pressurealtimeterstation pressurevisibilityair tempwater tempwave heightnotes
2019-Dec-06 16:50 5.4 5.0 Light rain.
2019-Dec-06 16:20 220 4 5.4 5.0 Light drizzle.
2019-Dec-06 15:50 5.4 5.0
2019-Dec-06 15:20 180 1 5.4 5.0
2019-Dec-06 14:50 230 5 5.4 6.0
2019-Dec-06 14:20 250 6 5.4 6.0
2019-Dec-06 13:50 220 7 5.4 5.0
2019-Dec-06 13:20 240 8 5.4 6.0
2019-Dec-06 12:50 250 6 5.4 6.0
2019-Dec-06 12:20 270 6 5.4 6.0
2019-Dec-06 11:50 250 8 5.4 6.0
2019-Dec-06 11:20 240 9 5.4 6.0
2019-Dec-06 10:50 240 6 5.4 6.0
2019-Dec-06 10:20 250 6 5.4 6.0
2019-Dec-06 09:50 230 9 5.4 6.0
2019-Dec-06 09:20 230 8 5.4 5.0
2019-Dec-06 08:50 220 7 5.4 5.0
2019-Dec-06 08:20 230 8 5.4 4.0
2019-Dec-06 07:50 230 9 5.4 4.0
2019-Dec-06 07:20 230 11 5.4 4.0
2019-Dec-06 06:50 230 5 5.4 4.0
2019-Dec-06 06:20 230 8 5.4 4.0
2019-Dec-06 05:50 250 6 5.4 5.0
2019-Dec-06 05:20 240 8 5.4 6.0
2019-Dec-06 04:50 240 8 5.4 6.0
2019-Dec-06 04:20 290 2 5.4 6.0
2019-Dec-06 03:50 260 7 5.4 7.0
2019-Dec-06 03:20 240 5 5.4 7.0
2019-Dec-06 02:50 210 6 5.4 8.0
2019-Dec-06 02:20 210 7 4.3 7.0 Light rain.
2019-Dec-06 01:50 200 8 4.3 7.0 Rain.
2019-Dec-06 01:20 200 6 4.3 7.0 Rain.
2019-Dec-06 00:50 210 5 5.4 7.0
2019-Dec-06 00:20 210 8 5.4 7.0
2019-Dec-05 23:50 220 11 5.4 6.0
2019-Dec-05 23:20 200 13 5.4 6.0
2019-Dec-05 22:50 210 18 5.4 7.0 Light rain.
2019-Dec-05 22:20 210 17 5.4 7.0
2019-Dec-05 21:50 210 15 5.4 7.0 Light rain.
2019-Dec-05 21:20 210 18 5.4 7.0
2019-Dec-05 20:50 210 20 5.4 7.0
2019-Dec-05 20:20 210 19 5.4 7.0
2019-Dec-05 19:50 210 20 5.4 7.0
2019-Dec-05 19:20 200 24 5.4 7.0
2019-Dec-05 18:50 200 22 gusting 34 5.4 7.0
2019-Dec-05 18:20 200 20 5.4 7.0
2019-Dec-05 17:50 200 20 5.4 7.0
2019-Dec-05 17:20 200 20 5.4 7.0
2019-Dec-05 16:20 210 20 5.4 7.0
2019-Dec-05 15:50 210 19 5.4 7.0
2019-Dec-05 15:20 210 19 5.4 7.0
2019-Dec-05 14:50 210 19 5.4 7.0
2019-Dec-05 14:20 210 19 5.4 7.0
2019-Dec-05 13:50 220 18 5.4 6.0
2019-Dec-05 13:20 210 21 5.4 7.0
2019-Dec-05 12:50 210 20 5.4 7.0
2019-Dec-05 12:20 210 20 5.4 7.0
2019-Dec-05 11:50 210 21 5.4 7.0
2019-Dec-05 11:20 210 21 gusting 32 5.4 6.0
2019-Dec-05 10:50 200 20 5.4 6.0
2019-Dec-05 10:20 200 20 5.4 6.0
2019-Dec-05 09:50 210 18 5.4 6.0
2019-Dec-05 09:20 210 15 5.4 6.0
2019-Dec-05 08:50 210 15 5.4 6.0
2019-Dec-05 08:20 210 15 5.4 6.0
2019-Dec-05 07:50 210 17 gusting 27 5.4 6.0
2019-Dec-05 07:20 210 18 5.4 6.0
2019-Dec-05 06:50 210 17 5.4 6.0
2019-Dec-05 06:20 210 17 5.4 6.0
2019-Dec-05 05:50 210 15 5.4 6.0
2019-Dec-05 05:20 210 14 5.4 6.0
2019-Dec-05 04:50 210 17 5.4 6.0
2019-Dec-05 04:20 210 17 5.4 6.0
2019-Dec-05 03:50 210 17 5.4 6.0
2019-Dec-05 03:20 210 17 5.4 6.0
2019-Dec-05 02:50 210 17 5.4 7.0
2019-Dec-05 02:20 220 13 5.4 6.0
2019-Dec-05 01:50 210 15 5.4 7.0
2019-Dec-05 01:20 220 14 5.4 6.0
2019-Dec-05 00:50 210 14 5.4 7.0
2019-Dec-05 00:20 210 17 5.4 7.0
2019-Dec-04 23:50 210 19 5.4 6.0
2019-Dec-04 23:20 210 15 5.4 6.0
2019-Dec-04 22:50 210 18 5.4 6.0
2019-Dec-04 22:20 210 18 5.4 6.0
2019-Dec-04 21:50 210 19 5.4 6.0
2019-Dec-04 21:20 210 17 5.4 6.0
2019-Dec-04 20:50 210 14 5.4 6.0
2019-Dec-04 20:20 210 13 5.4 5.0
2019-Dec-04 19:50 200 13 5.4 5.0
2019-Dec-04 19:20 200 13 5.4 5.0
2019-Dec-04 18:50 200 14 5.4 5.0
2019-Dec-04 18:20 200 14 5.4 5.0
2019-Dec-04 17:50 200 13 5.4 5.0
2019-Dec-04 17:20 200 6 5.4 5.0